FW7738 Weather Reports


Display with metric or nautical units.
time (UTC)temp
F
wind
direction
speed
MPH
gust
MPH
rain 1hr
in
rain 24hr
in
rain mn
in
humidity
%
barometer
mb
20260902134027 82 126 9.0 15.0 0.00 0.00 0.00 75 1018.5
20260902133023 83 96 7.0 14.0 0.00 0.00 0.00 75 1018.5
20260902132018 83 114 7.0 17.0 0.00 0.00 0.00 75 1018.5
20260902131033 82 118 8.0 15.0 0.00 0.00 0.00 75 1018.6
20260902130028 83 111 5.0 10.0 0.00 0.00 0.00 73 1018.8
20260902125044 83 119 7.0 14.0 0.00 0.00 0.00 73 1018.8
20260902124018 83 126 7.0 14.0 0.00 0.00 0.00 73 1018.7
20260902123033 83 120 8.0 13.0 0.00 0.00 0.00 72 1018.8
20260902122028 83 105 6.0 13.0 0.00 0.00 0.00 72 1019.0
20260902121044 84 110 6.0 10.0 0.00 0.00 0.00 69 1018.9
20260902120019 83 110 4.0 11.0 0.00 0.00 0.00 70 1018.9
20260902115034 83 113 2.0 8.0 0.00 0.00 0.00 70 1019.0
20260902114050 83 127 5.0 13.0 0.00 0.00 0.00 71 1019.2
20260902113025 83 156 5.0 10.0 0.00 0.00 0.00 72 1019.2
20260902112020 83 112 3.0 11.0 0.00 0.00 0.00 71 1019.3
20260902111016 83 137 6.0 11.0 0.00 0.00 0.00 72 1019.2
20260902110031 82 95 4.0 8.0 0.00 0.00 0.00 73 1019.4
20260902105027 82 98 5.0 9.0 0.00 0.00 0.00 73 1019.3
20260902104022 81 109 5.0 9.0 0.00 0.00 0.00 75 1019.3
20260902103037 81 101 3.0 10.0 0.00 0.00 0.00 75 1019.5
20260902102032 81 114 3.0 8.0 0.00 0.00 0.00 75 1019.5
20260902101027 82 114 5.0 11.0 0.00 0.00 0.00 74 1019.5
20260902100043 81 105 7.0 13.0 0.00 0.00 0.00 75 1019.5
20260902095018 81 113 6.0 10.0 0.00 0.00 0.00 74 1019.4
20260902094033 81 121 5.0 10.0 0.00 0.00 0.00 73 1019.4
20260902093028 81 113 5.0 13.0 0.00 0.00 0.00 72 1019.3
20260902092024 80 119 7.0 11.0 0.00 0.00 0.00 73 1019.4
20260902091019 81 128 4.0 9.0 0.00 0.00 0.00 71 1019.2
20260902090035 80 89 3.0 7.0 0.00 0.00 0.00 73 1019.1
20260902085030 82 96 2.0 6.0 0.00 0.00 0.00 69 1019.0
20260902084025 80 95 1.0 4.0 0.00 0.00 0.00 71 1018.7
20260902083021 80 98 2.0 4.0 0.00 0.00 0.00 71 1018.6
20260902082036 81 119 2.0 3.0 0.00 0.00 0.00 68 1018.6
20260902081031 79 111 1.0 3.0 0.00 0.00 0.00 70 1018.5
20260902080047 79 111 1.0 2.0 0.00 0.00 0.00 71 1018.4
20260902075041 79 97 2.0 3.0 0.00 0.00 0.00 71 1018.4
20260902074017 79 92 0.0 2.0 0.00 0.00 0.00 70 1018.3
20260902073032 80 100 1.0 2.0 0.00 0.00 0.00 68 1018.4
20260902072028 79 0.0 0.0 0.00 0.00 0.00 71 1018.1
20260902071024 78 0.0 0.0 0.00 0.00 0.00 74 1018.0
20260902070018 76 0.0 0.0 0.00 0.00 0.00 77 1018.0
20260902065033 75 86 0.0 1.0 0.00 0.00 0.00 78 1017.8
20260902064028 74 75 0.0 1.0 0.00 0.00 0.00 80 1017.8
20260902063023 74 69 0.0 1.0 0.00 0.00 0.00 80 1017.7
20260902062018 74 32 0.0 1.0 0.00 0.00 0.00 79 1017.5
20260902061115 73 351 0.0 2.0 0.00 0.00 0.00 80 1017.5
20260902060028 73 317 2.0 4.0 0.00 0.00 0.00 80 1017.4
20260902055024 73 285 1.0 3.0 0.00 0.00 0.00 81 1017.4
20260902054019 73 280 1.0 3.0 0.00 0.00 0.00 81 1017.2
20260902053035 73 293 1.0 3.0 0.00 0.00 0.00 81 1017.1
20260902052029 73 293 2.0 7.0 0.00 0.00 0.00 81 1017.0
20260902051024 73 301 1.0 3.0 0.00 0.00 0.00 81 1017.1
20260902050020 73 274 2.0 4.0 0.00 0.00 0.00 81 1017.0
20260902045055 73 303 1.0 2.0 0.00 0.00 0.00 82 1017.1
20260902044030 74 319 3.0 4.0 0.00 0.00 0.00 81 1017.0
20260902043045 74 308 2.0 4.0 0.00 0.00 0.00 81 1016.8
20260902042020 74 316 2.0 4.0 0.00 0.00 0.00 81 1016.8
20260902041015 74 325 2.0 3.0 0.00 0.00 0.00 81 1017.1
20260902040052 74 316 0.0 1.0 0.00 0.00 0.00 81 1017.1
20260902035026 74 314 0.0 1.0 0.00 0.00 0.00 81 1017.2
20260902034021 74 2 0.0 2.0 0.00 0.00 0.00 81 1017.2
20260902033017 74 321 1.0 3.0 0.00 0.00 0.00 80 1017.3
20260902032032 74 296 2.0 4.0 0.00 0.00 0.00 80 1017.2
20260902031028 74 313 2.0 3.0 0.00 0.00 0.00 80 1017.3
20260902030023 74 302 2.0 3.0 0.00 0.00 0.00 81 1017.2
20260902025018 74 323 0.0 3.0 0.00 0.00 0.00 82 1017.2
20260902024034 74 329 0.0 2.0 0.00 0.00 0.00 83 1017.3
20260902023029 74 335 0.0 2.0 0.00 0.00 0.00 84 1017.2
20260902022024 74 349 1.0 2.0 0.00 0.00 0.00 84 1017.3
20260902021019 74 0.0 0.0 0.00 0.00 0.00 85 1017.2
20260902020054 74 0.0 0.0 0.00 0.00 0.00 84 1017.3
20260902015050 75 0.0 0.0 0.00 0.00 0.00 84 1017.4
20260902014026 75 335 0.0 1.0 0.00 0.00 0.00 84 1017.4
20260902013020 75 303 1.0 2.0 0.00 0.00 0.00 84 1017.6
20260902012016 75 300 1.0 1.0 0.00 0.00 0.00 85 1017.5
20260902011051 75 301 2.0 3.0 0.00 0.00 0.00 86 1017.6
20260902010026 75 307 1.0 3.0 0.00 0.00 0.00 86 1017.6
20260902005021 75 324 0.0 1.0 0.00 0.00 0.00 87 1017.6
20260902004016 75 319 1.0 2.0 0.00 0.00 0.00 87 1017.7
20260902003031 75 318 1.0 2.0 0.00 0.00 0.00 87 1017.8
20260902002107 76 0.0 0.0 0.00 0.00 0.00 87 1017.8
20260902001022 76 334 0.0 1.0 0.00 0.00 0.00 87 1017.8
20260902000017 76 0.0 0.0 0.00 0.00 0.00 87 1017.8
20260901235033 75 0 1.0 1.0 0.00 0.00 0.00 87 1017.7
20260901234028 75 356 0.0 1.0 0.00 0.00 0.00 87 1017.7
20260901233023 75 353 1.0 2.0 0.00 0.00 0.00 87 1017.7
20260901232019 0 0.0 0.0 0.00 0.00 0.00 1017.6
20260901231034 0 0.0 0.0 0.00 0.00 0.00 1017.7
20260901230029 76 354 0.0 1.0 0.00 0.00 0.00 88 1017.5
20260901225044 76 359 0.0 1.0 0.00 0.00 0.00 88 1017.7
20260901224019 76 350 1.0 2.0 0.00 0.00 0.00 87 1017.7
20260901223035 76 344 1.0 3.0 0.00 0.00 0.00 87 1017.7
20260901222031 76 352 1.0 1.0 0.00 0.00 0.00 87 1017.7
20260901221026 76 348 1.0 1.0 0.00 0.00 0.00 87 1017.7
20260901220022 77 355 0.0 1.0 0.00 0.00 0.00 86 1017.7
20260901215017 77 340 1.0 2.0 0.00 0.00 0.00 86 1017.6
20260901214032 77 348 0.0 1.0 0.00 0.00 0.00 86 1017.7
20260901213027 77 0.0 0.0 0.00 0.00 0.00 87 1017.7
20260901212043 77 1 0.0 1.0 0.00 0.00 0.00 87 1017.6
20260901211017 77 29 0.0 1.0 0.00 0.00 0.00 86 1017.6
20260901210113 77 32 0.0 1.0 0.00 0.00 0.00 86 1017.6
20260901205028 77 0.0 0.0 0.00 0.00 0.00 86 1017.5
20260901204024 77 0.0 0.0 0.00 0.00 0.00 86 1017.5
20260901203019 77 0.0 0.0 0.00 0.00 0.00 85 1017.5
20260901202035 77 0.0 0.0 0.00 0.00 0.00 85 1017.2
20260901201030 78 49 0.0 1.0 0.00 0.00 0.00 85 1017.1
20260901200025 78 49 0.0 1.0 0.00 0.00 0.00 85 1017.0
20260901195101 78 0.0 0.0 0.00 0.00 0.00 85 1017.0
20260901194036 78 0.0 0.0 0.00 0.00 0.00 84 1016.9
20260901193031 78 0.0 0.0 0.00 0.00 0.00 84 1016.6
20260901192026 78 75 1.0 1.0 0.00 0.00 0.00 84 1016.4
20260901191022 78 78 1.0 2.0 0.00 0.00 0.00 83 1016.2
20260901190017 78 91 0.0 2.0 0.00 0.00 0.00 83 1016.3
20260901185032 78 88 1.0 3.0 0.00 0.00 0.00 82 1016.1
20260901184027 79 121 3.0 6.0 0.00 0.00 0.00 81 1016.0
20260901183022 79 106 3.0 6.0 0.00 0.00 0.00 81 1015.9
20260901182018 79 104 2.0 4.0 0.00 0.00 0.00 81 1016.0
20260901181033 79 120 3.0 7.0 0.00 0.00 0.00 80 1015.8
20260901180029 79 126 5.0 8.0 0.00 0.00 0.00 80 1015.9
20260901175024 80 137 3.0 7.0 0.00 0.00 0.00 80 1015.9
20260901174039 80 102 3.0 7.0 0.00 0.00 0.00 79 1015.8
20260901173034 80 113 5.0 8.0 0.00 0.00 0.00 78 1015.9
20260901172030 80 115 4.0 9.0 0.00 0.00 0.00 77 1015.9
20260901171045 80 130 4.0 7.0 0.00 0.00 0.00 75 1015.9
20260901170021 81 117 7.0 9.0 0.00 0.00 0.00 74 1015.9
20260901165016 81 103 4.0 7.0 0.00 0.00 0.00 72 1015.9
20260901164031 81 111 4.0 9.0 0.00 0.00 0.00 73 1016.1
20260901163046 82 110 3.0 7.0 0.00 0.00 0.00 70 1015.9
20260901162022 81 112 5.0 10.0 0.00 0.00 0.00 71 1016.1
20260901161017 81 87 2.0 7.0 0.00 0.00 0.00 74 1016.1
20260901160113 81 128 3.0 8.0 0.00 0.00 0.00 73 1016.3
20260901155028 81 97 2.0 6.0 0.00 0.00 0.00 76 1016.2
20260901154044 80 80 2.0 7.0 0.00 0.00 0.00 75 1016.2
20260901153018 80 91 3.0 6.0 0.00 0.00 0.00 76 1016.5
20260901152034 80 84 3.0 6.0 0.00 0.00 0.00 76 1016.8
20260901151030 80 124 1.0 3.0 0.00 0.00 0.00 73 1017.1
20260901150024 81 261 2.0 7.0 0.00 0.00 0.00 74 1017.4
20260901145020 81 114 7.0 13.0 0.00 0.00 0.00 72 1016.2
20260901144015 82 110 7.0 13.0 0.00 0.00 0.00 68 1016.4
20260901143031 82 98 3.0 8.0 0.00 0.00 0.00 67 1016.5
20260901142026 83 135 4.0 10.0 0.00 0.00 0.00 65 1016.9
20260901141021 83 101 2.0 4.0 0.00 0.00 0.00 63 1017.4
20260901140038 83 104 4.0 8.0 0.00 0.00 0.00 65 1017.2
20260901135032 83 208 2.0 4.0 0.00 0.00 0.00 65 1017.9